This demonstration page uses our WeatherBlox Daily Observations layout. Learn more.

Left ArrowRight Arrow

40.92501, -98.34201

Hourly Observations for June 26, 2015

Temp ( °F °C ) Dew Point ( °F °C ) Humidity (%) Winds ( mph kmh ) Pressure ( in mb ) Visibility ( mi km ) Precip ( " mm )
12:53 am 00:53 Clear 65 18.3 60 15.6 84 84 N 5 7 30.00 1016 10 16 0.00 0.00
1:53 am 01:53 Clear 63 17.2 59 15 87 87 N 7 11 30.00 1016 10 16 0.00 0.00
2:53 am 02:53 Clear 62 16.7 60 15.6 93 93 N 7 11 30.01 1016 10 16 0.00 0.00
3:53 am 03:53 Mostly Cloudy 64 17.8 61 16.1 90 90 NW 6 9 30.02 1017 10 16 0.00 0.00
4:53 am 04:53 Mostly Clear 64 17.8 62 16.7 93 93 N 7 11 30.02 1017 9 14 0.00 0.00
5:53 am 05:53 Clear with Mist and Fog 63 17.2 61 16.1 93 93 NNW 7 11 30.02 1017 6 10 0.00 0.00
6:53 am 06:53 Sunny 66 18.9 63 17.2 90 90 N 13 20 30.05 1018 8 13 0.00 0.00
7:53 am 07:53 Mostly Cloudy 66 18.9 61 16.1 84 84 N 13 20 30.07 1018 10 16 0.00 0.00
8:53 am 08:53 Cloudy 67 19.4 62 16.7 84 84 NE 14 22 30.09 1019 10 16 0.00 0.00
9:11 am 09:11 Cloudy 68 20 63 17 83 83 NNE 13 20 30.06 1018 10 16 0.00 0.00
9:53 am 09:53 Cloudy 67 19.4 62 16.7 84 84 N 9 15 30.10 1019 10 16 0.00 0.00
10:53 am 10:53 Cloudy 69 20.6 63 17.2 81 81 NW 8 13 30.10 1019 10 16 0.00 0.00
11:53 am 11:53 Partly Cloudy 76 24.4 62 16.7 62 62 N 10 17 30.08 1019 10 16 0.00 0.00
12:53 pm 12:53 undefined 78 25.6 58 14.4 50 50 NNE 14 22 30.09 1019 10 16 0.00 0.00
1:53 pm 13:53 Partly Cloudy 82 27.8 58 14.4 44 44 N 16 26 30.08 1019 10 16 0.00 0.00
2:53 pm 14:53 Partly Cloudy 82 27.8 56 13.3 41 41 NNE 14 22 30.08 1019 10 16 0.00 0.00
3:53 pm 15:53 Sunny 82 27.8 54 12.2 38 38 N 14 22 30.08 1019 10 16 0.00 0.00
4:53 pm 16:53 Mostly Cloudy 80 26.7 55 12.8 42 42 NNE 15 24 30.07 1018 10 16 0.00 0.00
5:53 pm 17:53 Mostly Cloudy 80 26.7 55 12.8 42 42 NNE 13 20 30.07 1018 10 16 0.00 0.00
6:53 pm 18:53 Sunny 80 26.7 56 13.3 44 44 NE 10 17 30.07 1018 10 16 0.00 0.00
7:53 pm 19:53 Sunny 78 25.6 57 13.9 48 48 NE 10 17 30.08 1019 10 16 0.00 0.00
8:53 pm 20:53 Sunny 72 22.2 60 15.6 66 66 NE 6 9 30.09 1019 10 16 0.00 0.00
9:53 pm 21:53 Clear 69 20.6 59 15 70 70 NNE 3 6 30.11 1020 10 16 0.00 0.00
10:53 pm 22:53 Clear 66 18.9 59 15 78 78 N 3 6 30.13 1020 10 16 0.00 0.00
11:53 pm 23:53 Clear 65 18.3 58 14.4 78 78 Calm 30.13 1020 10 16 0.00 0.00

Powered by AerisWeather